Year,Month,Day,Hour,Minute,Value (Times are PST for temperature in C)
2007,07,10,00,00,16.40
2007,07,10,00,01,16.40
2007,07,10,00,02,16.30
2007,07,10,00,03,16.30
2007,07,10,00,04,16.30
2007,07,10,00,05,16.20
2007,07,10,00,06,16.20
2007,07,10,00,07,16.20
2007,07,10,00,08,16.20
2007,07,10,00,09,16.20
2007,07,10,00,10,16.20
2007,07,10,00,11,16.20
2007,07,10,00,12,16.20
2007,07,10,00,13,16.20
2007,07,10,00,14,16.10
2007,07,10,00,15,16.10
2007,07,10,00,16,16.10
2007,07,10,00,17,16.10
2007,07,10,00,18,16.00
2007,07,10,00,19,15.90
2007,07,10,00,20,15.90
2007,07,10,00,21,15.80
2007,07,10,00,22,15.80
2007,07,10,00,23,15.80
2007,07,10,00,24,15.80
2007,07,10,00,25,15.80
2007,07,10,00,26,15.80
2007,07,10,00,27,15.80
2007,07,10,00,28,15.80
2007,07,10,00,29,15.80
2007,07,10,00,30,15.80
2007,07,10,00,31,15.70
2007,07,10,00,32,15.70
2007,07,10,00,33,15.70
2007,07,10,00,34,15.70
2007,07,10,00,35,15.60
2007,07,10,00,36,15.60
2007,07,10,00,37,15.60
2007,07,10,00,38,15.60
2007,07,10,00,39,15.60
2007,07,10,00,40,15.60
2007,07,10,00,41,15.60
2007,07,10,00,42,15.60
2007,07,10,00,43,15.60
2007,07,10,00,44,15.50
2007,07,10,00,45,15.50
2007,07,10,00,46,15.50
2007,07,10,00,47,15.50
2007,07,10,00,48,15.50
2007,07,10,00,49,15.50
2007,07,10,00,50,15.40
2007,07,10,00,51,15.40
2007,07,10,00,52,15.40
2007,07,10,00,53,15.40
2007,07,10,00,54,15.40
2007,07,10,00,55,15.40
2007,07,10,00,56,15.40
2007,07,10,00,57,15.40
2007,07,10,00,58,15.30
2007,07,10,00,59,15.30
2007,07,10,01,00,15.30
2007,07,10,01,01,15.30
2007,07,10,01,02,15.30
2007,07,10,01,03,15.30
2007,07,10,01,04,15.30
2007,07,10,01,05,15.30
2007,07,10,01,06,15.30
2007,07,10,01,07,15.30
2007,07,10,01,08,15.30
2007,07,10,01,09,15.20
2007,07,10,01,10,15.20
2007,07,10,01,11,15.20
2007,07,10,01,12,15.20
2007,07,10,01,13,15.20
2007,07,10,01,14,15.20
2007,07,10,01,15,15.10
2007,07,10,01,16,15.10
2007,07,10,01,17,15.10
2007,07,10,01,18,15.10
2007,07,10,01,19,15.10
2007,07,10,01,20,15.10
2007,07,10,01,21,15.10
2007,07,10,01,22,15.10
2007,07,10,01,23,15.10
2007,07,10,01,24,15.10
2007,07,10,01,25,15.10
2007,07,10,01,26,15.00
2007,07,10,01,27,15.00
2007,07,10,01,28,15.00
2007,07,10,01,29,15.00
2007,07,10,01,30,15.00
2007,07,10,01,31,15.00
2007,07,10,01,32,15.00
2007,07,10,01,33,15.00
2007,07,10,01,34,15.00
2007,07,10,01,35,15.00
2007,07,10,01,36,15.00
2007,07,10,01,37,15.10
2007,07,10,01,38,15.10
2007,07,10,01,39,15.10
2007,07,10,01,40,15.10
2007,07,10,01,41,15.10
2007,07,10,01,42,15.10
2007,07,10,01,43,15.10
2007,07,10,01,44,15.10
2007,07,10,01,45,15.10
2007,07,10,01,46,15.10
2007,07,10,01,47,15.10
2007,07,10,01,48,15.00
2007,07,10,01,49,15.00
2007,07,10,01,50,15.00
2007,07,10,01,51,15.00
2007,07,10,01,52,15.00
2007,07,10,01,53,14.90
2007,07,10,01,54,14.90
2007,07,10,01,55,14.90
2007,07,10,01,56,14.90
2007,07,10,01,57,14.90
2007,07,10,01,58,14.90
2007,07,10,01,59,14.90
2007,07,10,02,00,14.90
2007,07,10,02,01,14.90
2007,07,10,02,02,14.90
2007,07,10,02,03,14.90
2007,07,10,02,04,14.90
2007,07,10,02,05,14.80
2007,07,10,02,06,14.80
2007,07,10,02,07,14.80
2007,07,10,02,08,14.80
2007,07,10,02,09,14.80
2007,07,10,02,10,14.80
2007,07,10,02,11,14.70
2007,07,10,02,12,14.70
2007,07,10,02,13,14.60
2007,07,10,02,14,14.60
2007,07,10,02,15,14.50
2007,07,10,02,16,14.50
2007,07,10,02,17,14.50
2007,07,10,02,18,14.50
2007,07,10,02,19,14.40
2007,07,10,02,20,14.40
2007,07,10,02,21,14.40
2007,07,10,02,22,14.30
2007,07,10,02,23,14.30
2007,07,10,02,24,14.30
2007,07,10,02,25,14.30
2007,07,10,02,26,14.30
2007,07,10,02,27,14.30
2007,07,10,02,28,14.20
2007,07,10,02,29,14.20
2007,07,10,02,30,14.20
2007,07,10,02,31,14.20
2007,07,10,02,32,14.20
2007,07,10,02,33,14.20
2007,07,10,02,34,14.20
2007,07,10,02,35,14.30
2007,07,10,02,36,14.30
2007,07,10,02,37,14.30
2007,07,10,02,38,14.30
2007,07,10,02,39,14.40
2007,07,10,02,40,14.40
2007,07,10,02,41,14.40
2007,07,10,02,42,14.40
2007,07,10,02,43,14.40
2007,07,10,02,44,14.40
2007,07,10,02,45,14.40
2007,07,10,02,46,14.40
2007,07,10,02,47,14.40
2007,07,10,02,48,14.40
2007,07,10,02,49,14.30
2007,07,10,02,50,14.30
2007,07,10,02,51,14.30
2007,07,10,02,52,14.30
2007,07,10,02,53,14.30
2007,07,10,02,54,14.30
2007,07,10,02,55,14.20
2007,07,10,02,56,14.20
2007,07,10,02,57,14.20
2007,07,10,02,58,14.20
2007,07,10,02,59,14.20
2007,07,10,03,00,14.20
2007,07,10,03,01,14.20
2007,07,10,03,02,14.20
2007,07,10,03,03,14.20
2007,07,10,03,04,14.20
2007,07,10,03,05,14.20
2007,07,10,03,06,14.20
2007,07,10,03,07,14.10
2007,07,10,03,08,14.10
2007,07,10,03,09,14.10
2007,07,10,03,10,14.00
2007,07,10,03,11,14.00
2007,07,10,03,12,14.00
2007,07,10,03,13,14.00
2007,07,10,03,14,13.90
2007,07,10,03,15,13.90
2007,07,10,03,16,13.90
2007,07,10,03,17,13.90
2007,07,10,03,18,13.80
2007,07,10,03,19,13.80
2007,07,10,03,20,13.80
2007,07,10,03,21,13.70
2007,07,10,03,22,13.70
2007,07,10,03,23,13.70
2007,07,10,03,24,13.70
2007,07,10,03,25,13.70
2007,07,10,03,26,13.70
2007,07,10,03,27,13.70
2007,07,10,03,28,13.70
2007,07,10,03,29,13.60
2007,07,10,03,30,13.60
2007,07,10,03,31,13.60
2007,07,10,03,32,13.60
2007,07,10,03,33,13.60
2007,07,10,03,34,13.60
2007,07,10,03,35,13.60
2007,07,10,03,36,13.60
2007,07,10,03,37,13.60
2007,07,10,03,38,13.60
2007,07,10,03,39,13.60
2007,07,10,03,40,13.60
2007,07,10,03,41,13.50
2007,07,10,03,42,13.50
2007,07,10,03,43,13.50
2007,07,10,03,44,13.50
2007,07,10,03,45,13.50
2007,07,10,03,46,13.50
2007,07,10,03,47,13.50
2007,07,10,03,48,13.50
2007,07,10,03,49,13.50
2007,07,10,03,50,13.40
2007,07,10,03,51,13.40
2007,07,10,03,52,13.40
2007,07,10,03,53,13.40
2007,07,10,03,54,13.40
2007,07,10,03,55,13.40
2007,07,10,03,56,13.40
2007,07,10,03,57,13.40
2007,07,10,03,58,13.40
2007,07,10,03,59,13.40
2007,07,10,04,00,13.30
2007,07,10,04,01,13.30
2007,07,10,04,02,13.30
2007,07,10,04,03,13.30
2007,07,10,04,04,13.30
2007,07,10,04,05,13.30
2007,07,10,04,06,13.30
2007,07,10,04,07,13.30
2007,07,10,04,08,13.30
2007,07,10,04,09,13.30
2007,07,10,04,10,13.30
2007,07,10,04,11,13.30
2007,07,10,04,12,13.30
2007,07,10,04,13,13.30
2007,07,10,04,14,13.30
2007,07,10,04,15,13.30
2007,07,10,04,16,13.20
2007,07,10,04,17,13.20
2007,07,10,04,18,13.20
2007,07,10,04,19,13.20
2007,07,10,04,20,13.20
2007,07,10,04,21,13.20
2007,07,10,04,22,13.20
2007,07,10,04,23,13.20
2007,07,10,04,24,13.20
2007,07,10,04,25,13.20
2007,07,10,04,26,13.20
2007,07,10,04,27,13.10
2007,07,10,04,28,13.10
2007,07,10,04,29,13.10
2007,07,10,04,30,13.10
2007,07,10,04,31,13.10
2007,07,10,04,32,13.10
2007,07,10,04,33,13.10
2007,07,10,04,34,13.10
2007,07,10,04,35,13.10
2007,07,10,04,36,13.10
2007,07,10,04,37,13.10
2007,07,10,04,38,13.10
2007,07,10,04,39,13.00
2007,07,10,04,40,13.00
2007,07,10,04,41,13.00
2007,07,10,04,42,13.00
2007,07,10,04,43,13.00
2007,07,10,04,44,13.00
2007,07,10,04,45,13.00
2007,07,10,04,46,13.00
2007,07,10,04,47,12.90
2007,07,10,04,48,12.90
2007,07,10,04,49,12.90
2007,07,10,04,50,12.90
2007,07,10,04,51,12.90
2007,07,10,04,52,12.90
2007,07,10,04,53,12.90
2007,07,10,04,54,12.90
2007,07,10,04,55,12.90
2007,07,10,04,56,12.90
2007,07,10,04,57,12.90
2007,07,10,04,58,12.90
2007,07,10,04,59,12.90
2007,07,10,05,00,12.90
2007,07,10,05,01,12.90
2007,07,10,05,02,12.90
2007,07,10,05,03,12.90
2007,07,10,05,04,12.90
2007,07,10,05,05,12.90
2007,07,10,05,06,12.90
2007,07,10,05,07,12.90
2007,07,10,05,08,12.80
2007,07,10,05,09,12.80
2007,07,10,05,10,12.80
2007,07,10,05,11,12.80
2007,07,10,05,12,12.80
2007,07,10,05,13,12.80
2007,07,10,05,14,12.80
2007,07,10,05,15,12.80
2007,07,10,05,16,12.80
2007,07,10,05,17,12.80
2007,07,10,05,18,12.80
2007,07,10,05,19,12.80
2007,07,10,05,20,12.80
2007,07,10,05,21,12.80
2007,07,10,05,22,12.80
2007,07,10,05,23,12.80
2007,07,10,05,24,12.80
2007,07,10,05,25,12.80
2007,07,10,05,26,12.80
2007,07,10,05,27,12.80
2007,07,10,05,28,12.80
2007,07,10,05,29,12.80
2007,07,10,05,30,12.80
2007,07,10,05,31,12.80
2007,07,10,05,32,12.80
2007,07,10,05,33,12.80
2007,07,10,05,34,12.70
2007,07,10,05,35,12.70
2007,07,10,05,36,12.70
2007,07,10,05,37,12.70
2007,07,10,05,38,12.70
2007,07,10,05,39,12.60
2007,07,10,05,40,12.60
2007,07,10,05,41,12.60
2007,07,10,05,42,12.50
2007,07,10,05,43,12.50
2007,07,10,05,44,12.50
2007,07,10,05,45,12.50
2007,07,10,05,46,12.40
2007,07,10,05,47,12.40
2007,07,10,05,48,12.40
2007,07,10,05,49,12.40
2007,07,10,05,50,12.40
2007,07,10,05,51,12.40
2007,07,10,05,52,12.40
2007,07,10,05,53,12.40
2007,07,10,05,54,12.40
2007,07,10,05,55,12.40
2007,07,10,05,56,12.50
2007,07,10,05,57,12.50
2007,07,10,05,58,12.50
2007,07,10,05,59,12.60
2007,07,10,06,00,12.60
2007,07,10,06,01,12.60
2007,07,10,06,02,12.60
2007,07,10,06,03,12.70
2007,07,10,06,04,12.70
2007,07,10,06,05,12.70
2007,07,10,06,06,12.80
2007,07,10,06,07,12.80
2007,07,10,06,08,12.80
2007,07,10,06,09,12.80
2007,07,10,06,10,12.80
2007,07,10,06,11,12.80
2007,07,10,06,12,12.80
2007,07,10,06,13,12.90
2007,07,10,06,14,12.90
2007,07,10,06,15,12.90
2007,07,10,06,16,12.90
2007,07,10,06,17,13.00
2007,07,10,06,18,13.00
2007,07,10,06,19,13.10
2007,07,10,06,20,13.10
2007,07,10,06,21,13.20
2007,07,10,06,22,13.20
2007,07,10,06,23,13.20
2007,07,10,06,24,13.30
2007,07,10,06,25,13.30
2007,07,10,06,26,13.30
2007,07,10,06,27,13.40
2007,07,10,06,28,13.50
2007,07,10,06,29,13.50
2007,07,10,06,30,13.50
2007,07,10,06,31,13.60
2007,07,10,06,32,13.60
2007,07,10,06,33,13.70
2007,07,10,06,34,13.70
2007,07,10,06,35,13.70
2007,07,10,06,36,13.70
2007,07,10,06,37,13.80
2007,07,10,06,38,13.80
2007,07,10,06,39,13.80
2007,07,10,06,40,13.80
2007,07,10,06,41,13.90
2007,07,10,06,42,13.90
2007,07,10,06,43,13.90
2007,07,10,06,44,13.90
2007,07,10,06,45,14.00
2007,07,10,06,46,14.00
2007,07,10,06,47,14.00
2007,07,10,06,48,14.10
2007,07,10,06,49,14.20
2007,07,10,06,50,14.20
2007,07,10,06,51,14.20
2007,07,10,06,52,14.20
2007,07,10,06,53,14.40
2007,07,10,06,54,14.50
2007,07,10,06,55,14.60
2007,07,10,06,56,14.70
2007,07,10,06,57,14.80
2007,07,10,06,58,14.90
2007,07,10,06,59,15.00
2007,07,10,07,00,15.10
2007,07,10,07,01,15.30
2007,07,10,07,02,15.30
2007,07,10,07,03,15.40
2007,07,10,07,04,15.50
2007,07,10,07,05,15.60
2007,07,10,07,06,15.70
2007,07,10,07,07,15.80
2007,07,10,07,08,15.90
2007,07,10,07,09,16.00
2007,07,10,07,10,16.10
2007,07,10,07,11,16.20
2007,07,10,07,12,16.30
2007,07,10,07,13,16.40
2007,07,10,07,14,16.50
2007,07,10,07,15,16.60
2007,07,10,07,16,16.70
2007,07,10,07,17,16.80
2007,07,10,07,18,16.90
2007,07,10,07,19,17.00
2007,07,10,07,20,17.20
2007,07,10,07,21,17.40
2007,07,10,07,22,17.50
2007,07,10,07,23,17.50
2007,07,10,07,24,17.60
2007,07,10,07,25,17.70
2007,07,10,07,26,17.70
2007,07,10,07,27,17.80
2007,07,10,07,28,17.80
2007,07,10,07,29,17.80
2007,07,10,07,30,17.90
2007,07,10,07,31,17.90
2007,07,10,07,32,17.90
2007,07,10,07,33,18.00
2007,07,10,07,34,18.20
2007,07,10,07,35,18.20
2007,07,10,07,36,18.30
2007,07,10,07,37,18.40
2007,07,10,07,38,18.50
2007,07,10,07,39,18.60
2007,07,10,07,40,18.70
2007,07,10,07,41,18.70
2007,07,10,07,42,18.80
2007,07,10,07,43,18.90
2007,07,10,07,44,18.90
2007,07,10,07,45,18.90
2007,07,10,07,46,19.00
2007,07,10,07,47,19.10
2007,07,10,07,48,19.10
2007,07,10,07,49,19.10
2007,07,10,07,50,19.20
2007,07,10,07,51,19.30
2007,07,10,07,52,19.30
2007,07,10,07,53,19.40
2007,07,10,07,54,19.40
2007,07,10,07,55,19.50
2007,07,10,07,56,19.60
2007,07,10,07,57,19.60
2007,07,10,07,58,19.70
2007,07,10,07,59,19.80
2007,07,10,08,00,19.90
2007,07,10,08,01,19.90
2007,07,10,08,02,20.00
2007,07,10,08,03,20.10
2007,07,10,08,04,20.10
2007,07,10,08,05,20.10
2007,07,10,08,06,20.20
2007,07,10,08,07,20.10
2007,07,10,08,08,20.10
2007,07,10,08,09,20.10
2007,07,10,08,10,20.10
2007,07,10,08,11,20.10
2007,07,10,08,12,20.10
2007,07,10,08,13,20.20
2007,07,10,08,14,20.20
2007,07,10,08,15,20.20
2007,07,10,08,16,20.20
2007,07,10,08,17,20.30
2007,07,10,08,18,20.30
2007,07,10,08,19,20.40
2007,07,10,08,20,20.50
2007,07,10,08,21,20.60
2007,07,10,08,22,20.60
2007,07,10,08,23,20.70
2007,07,10,08,24,20.80
2007,07,10,08,25,20.80
2007,07,10,08,26,20.90
2007,07,10,08,27,20.90
2007,07,10,08,28,21.00
2007,07,10,08,29,21.10
2007,07,10,08,30,21.10
2007,07,10,08,31,21.20
2007,07,10,08,32,21.30
2007,07,10,08,33,21.30
2007,07,10,08,34,21.30
2007,07,10,08,35,21.40
2007,07,10,08,36,21.50
2007,07,10,08,37,21.60
2007,07,10,08,38,21.60
2007,07,10,08,39,21.60
2007,07,10,08,40,21.60
2007,07,10,08,41,21.70
2007,07,10,08,42,21.70
2007,07,10,08,43,21.80
2007,07,10,08,44,21.80
2007,07,10,08,45,21.90
2007,07,10,08,46,22.00
2007,07,10,08,47,22.10
2007,07,10,08,48,22.10
2007,07,10,08,49,22.20
2007,07,10,08,50,22.30
2007,07,10,08,51,22.30
2007,07,10,08,52,22.40
2007,07,10,08,53,22.50
2007,07,10,08,54,22.60
2007,07,10,08,55,22.70
2007,07,10,08,56,22.90
2007,07,10,08,57,22.90
2007,07,10,08,58,23.10
2007,07,10,08,59,23.20
2007,07,10,09,00,23.30
2007,07,10,09,01,23.40
2007,07,10,09,02,23.50
2007,07,10,09,03,23.70
2007,07,10,09,04,23.70
2007,07,10,09,05,23.80
2007,07,10,09,06,23.90
2007,07,10,09,07,24.00
2007,07,10,09,08,24.10
2007,07,10,09,09,24.10
2007,07,10,09,10,24.20
2007,07,10,09,11,24.30
2007,07,10,09,12,24.30
2007,07,10,09,13,24.30
2007,07,10,09,14,24.30
2007,07,10,09,15,24.30
2007,07,10,09,16,24.20
2007,07,10,09,17,24.20
2007,07,10,09,18,24.30
2007,07,10,09,19,24.20
2007,07,10,09,20,24.00
2007,07,10,09,21,23.90
2007,07,10,09,22,23.90
2007,07,10,09,23,23.80
2007,07,10,09,24,23.80
2007,07,10,09,25,23.70
2007,07,10,09,26,23.60
2007,07,10,09,27,23.60
2007,07,10,09,28,23.60
2007,07,10,09,29,23.50
2007,07,10,09,30,23.40
2007,07,10,09,31,23.60
2007,07,10,09,32,23.60
2007,07,10,09,33,23.60
2007,07,10,09,34,23.60
2007,07,10,09,35,23.60
2007,07,10,09,36,23.60
2007,07,10,09,37,23.70
2007,07,10,09,38,23.70
2007,07,10,09,39,23.70
2007,07,10,09,40,23.70
2007,07,10,09,41,23.80
2007,07,10,09,42,23.80
2007,07,10,09,43,23.80
2007,07,10,09,44,23.70
2007,07,10,09,45,23.60
2007,07,10,09,46,23.40
2007,07,10,09,47,23.40
2007,07,10,09,48,23.60
2007,07,10,09,49,23.70
2007,07,10,09,50,23.70
2007,07,10,09,51,23.60
2007,07,10,09,52,23.60
2007,07,10,09,53,23.60
2007,07,10,09,54,23.70
2007,07,10,09,55,23.70
2007,07,10,09,56,23.80
2007,07,10,09,57,23.80
2007,07,10,09,58,23.70
2007,07,10,09,59,23.50
2007,07,10,10,00,23.40
2007,07,10,10,01,23.20
2007,07,10,10,02,23.10
2007,07,10,10,03,22.90
2007,07,10,10,04,22.90
2007,07,10,10,05,22.80
2007,07,10,10,06,22.80
2007,07,10,10,07,22.90
2007,07,10,10,08,23.00
2007,07,10,10,09,23.20
2007,07,10,10,10,23.30
2007,07,10,10,11,23.50
2007,07,10,10,12,23.70
2007,07,10,10,13,23.70
2007,07,10,10,14,23.70
2007,07,10,10,15,23.60
2007,07,10,10,16,23.60
2007,07,10,10,17,23.50
2007,07,10,10,18,23.50
2007,07,10,10,19,23.60
2007,07,10,10,20,23.70
2007,07,10,10,21,23.80
2007,07,10,10,22,24.00
2007,07,10,10,23,24.20
2007,07,10,10,24,24.40
2007,07,10,10,25,24.50
2007,07,10,10,26,24.60
2007,07,10,10,27,24.40
2007,07,10,10,28,24.40
2007,07,10,10,29,24.30
2007,07,10,10,30,24.30
2007,07,10,10,31,24.30
2007,07,10,10,32,24.30
2007,07,10,10,33,24.50
2007,07,10,10,47,24.20
2007,07,10,10,48,24.10
2007,07,10,10,49,24.00
2007,07,10,10,50,23.90
2007,07,10,10,51,23.70
2007,07,10,10,52,23.70
2007,07,10,10,53,23.70
2007,07,10,10,54,23.70
2007,07,10,10,55,23.70
2007,07,10,10,56,23.80
2007,07,10,10,57,23.80
2007,07,10,10,58,24.00
2007,07,10,10,59,24.20
2007,07,10,11,00,24.30
2007,07,10,11,01,24.20
2007,07,10,11,02,24.00
2007,07,10,11,03,23.80
2007,07,10,11,04,23.70
2007,07,10,11,05,23.60
2007,07,10,11,06,23.60
2007,07,10,11,07,23.70
2007,07,10,11,08,23.70
2007,07,10,11,09,23.70
2007,07,10,11,10,23.70
2007,07,10,11,11,23.60
2007,07,10,11,12,23.70
2007,07,10,11,13,23.60
2007,07,10,11,14,23.40
2007,07,10,11,15,23.30
2007,07,10,11,20,23.30
2007,07,10,11,21,23.30
2007,07,10,11,22,23.40
2007,07,10,11,23,23.60
2007,07,10,11,24,23.70
2007,07,10,11,25,23.90
2007,07,10,11,26,24.10
2007,07,10,11,27,24.30
2007,07,10,11,28,24.30
2007,07,10,11,29,24.40
2007,07,10,11,30,24.50
2007,07,10,11,31,24.50
2007,07,10,11,32,24.60
2007,07,10,11,33,24.50
2007,07,10,11,34,24.60
2007,07,10,11,35,24.80
2007,07,10,11,36,24.80
2007,07,10,11,37,24.60
2007,07,10,11,38,24.50
2007,07,10,11,39,24.50
2007,07,10,11,40,24.40
2007,07,10,11,41,24.40
2007,07,10,11,42,24.50
2007,07,10,11,43,24.60
2007,07,10,11,44,24.80
2007,07,10,11,45,24.90
2007,07,10,11,46,24.90
2007,07,10,11,47,25.10
2007,07,10,11,48,25.20
2007,07,10,11,49,25.30
2007,07,10,11,50,25.30
2007,07,10,11,51,25.20
2007,07,10,11,52,25.20
2007,07,10,11,53,25.30
2007,07,10,11,54,25.40
2007,07,10,11,55,25.50
2007,07,10,11,56,25.60
2007,07,10,11,57,25.50
2007,07,10,11,58,25.50
2007,07,10,11,59,25.50
2007,07,10,12,00,25.50
2007,07,10,12,01,25.50
2007,07,10,12,02,25.50
2007,07,10,12,03,25.60
2007,07,10,12,04,25.70
2007,07,10,12,05,25.80
2007,07,10,12,06,26.00
2007,07,10,12,07,25.90
2007,07,10,12,08,25.80
2007,07,10,12,09,25.80
2007,07,10,12,10,25.80
2007,07,10,12,11,25.80
2007,07,10,12,12,25.90
2007,07,10,12,13,25.90
2007,07,10,12,14,26.00
2007,07,10,12,15,26.20
2007,07,10,12,16,26.20
2007,07,10,12,17,26.20
2007,07,10,12,18,26.20
2007,07,10,12,19,26.10
2007,07,10,12,20,26.00
2007,07,10,12,21,26.00
2007,07,10,12,22,25.90
2007,07,10,12,23,26.00
2007,07,10,12,24,26.20
2007,07,10,12,25,26.30
2007,07,10,12,26,26.40
2007,07,10,12,27,26.40
2007,07,10,12,28,26.50
2007,07,10,12,29,26.60
2007,07,10,12,30,26.70
2007,07,10,12,31,26.70
2007,07,10,12,32,26.60
2007,07,10,12,33,26.60
2007,07,10,12,34,26.60
2007,07,10,12,35,26.60
2007,07,10,12,36,26.60
2007,07,10,12,37,26.70
2007,07,10,12,38,26.70
2007,07,10,12,39,26.70
2007,07,10,12,40,26.60
2007,07,10,12,41,26.60
2007,07,10,12,42,26.60
2007,07,10,12,43,26.60
2007,07,10,12,44,26.60
2007,07,10,12,45,26.60
2007,07,10,12,46,26.70
2007,07,10,12,47,26.80
2007,07,10,12,48,26.90
2007,07,10,12,49,26.90
2007,07,10,12,50,27.00
2007,07,10,12,51,27.10
2007,07,10,12,52,27.30
2007,07,10,12,53,27.30
2007,07,10,12,54,27.30
2007,07,10,12,55,27.30
2007,07,10,12,56,27.30
2007,07,10,12,57,27.20
2007,07,10,12,58,27.00
2007,07,10,12,59,26.90
2007,07,10,13,00,27.00
2007,07,10,13,01,27.20
2007,07,10,13,02,27.40
2007,07,10,13,03,27.50
2007,07,10,13,04,27.50
2007,07,10,13,05,27.30
2007,07,10,13,06,27.20
2007,07,10,13,07,26.90
2007,07,10,13,08,26.70
2007,07,10,13,09,26.50
2007,07,10,13,10,26.40
2007,07,10,13,11,26.50
2007,07,10,13,12,26.60
2007,07,10,13,13,26.70
2007,07,10,13,14,26.80
2007,07,10,13,15,26.80
2007,07,10,13,16,26.60
2007,07,10,13,17,26.40
2007,07,10,13,18,26.30
2007,07,10,13,19,26.20
2007,07,10,13,20,26.20
2007,07,10,13,21,26.30
2007,07,10,13,22,26.40
2007,07,10,13,23,26.50
2007,07,10,13,24,26.60
2007,07,10,13,25,26.60
2007,07,10,13,26,26.40
2007,07,10,13,27,26.40
2007,07,10,13,28,26.30
2007,07,10,13,29,26.30
2007,07,10,13,30,26.30
2007,07,10,13,31,26.20
2007,07,10,13,32,26.10
2007,07,10,13,33,26.00
2007,07,10,13,34,25.90
2007,07,10,13,35,25.80
2007,07,10,13,36,25.80
2007,07,10,13,37,26.00
2007,07,10,13,38,26.10
2007,07,10,13,39,26.10
2007,07,10,13,40,26.10
2007,07,10,13,41,26.10
2007,07,10,13,42,26.20
2007,07,10,13,43,26.30
2007,07,10,13,44,26.30
2007,07,10,13,45,26.40
2007,07,10,13,46,26.50
2007,07,10,13,47,26.60
2007,07,10,13,48,26.60
2007,07,10,13,49,26.80
2007,07,10,13,50,26.80
2007,07,10,13,51,26.70
2007,07,10,13,52,26.60
2007,07,10,13,53,26.40
2007,07,10,13,54,26.30
2007,07,10,13,55,26.20
2007,07,10,13,56,26.20
2007,07,10,13,57,26.20
2007,07,10,13,58,26.30
2007,07,10,13,59,26.30
2007,07,10,14,00,26.30
2007,07,10,14,01,26.30
2007,07,10,14,02,26.30
2007,07,10,14,03,26.20
2007,07,10,14,04,26.20
2007,07,10,14,05,26.20
2007,07,10,14,06,26.20
2007,07,10,14,07,26.30
2007,07,10,14,08,26.40
2007,07,10,14,09,26.30
2007,07,10,14,10,26.30
2007,07,10,14,11,26.30
2007,07,10,14,12,26.40
2007,07,10,14,13,26.30
2007,07,10,14,14,26.20
2007,07,10,14,15,26.00
2007,07,10,14,16,25.90
2007,07,10,14,17,25.90
2007,07,10,14,18,25.80
2007,07,10,14,19,25.90
2007,07,10,14,20,26.00
2007,07,10,14,21,26.00
2007,07,10,14,22,26.00
2007,07,10,14,23,26.10
2007,07,10,14,24,26.10
2007,07,10,14,25,26.10
2007,07,10,14,26,26.00
2007,07,10,14,27,25.90
2007,07,10,14,28,26.00
2007,07,10,14,29,26.00
2007,07,10,14,30,26.00
2007,07,10,14,31,26.10
2007,07,10,14,32,26.40
2007,07,10,14,33,26.50
2007,07,10,14,34,26.60
2007,07,10,14,35,26.70
2007,07,10,14,36,26.70
2007,07,10,14,37,26.80
2007,07,10,14,38,26.80
2007,07,10,14,39,26.70
2007,07,10,14,40,26.70
2007,07,10,14,41,26.60
2007,07,10,14,42,26.60
2007,07,10,14,43,26.60
2007,07,10,14,44,26.60
2007,07,10,14,45,26.60
2007,07,10,14,46,26.40
2007,07,10,14,47,26.30
2007,07,10,14,48,26.30
2007,07,10,14,49,26.20
2007,07,10,14,50,26.20
2007,07,10,14,51,26.20
2007,07,10,14,52,26.20
2007,07,10,14,53,26.20
2007,07,10,14,54,26.20
2007,07,10,14,55,26.30
2007,07,10,14,56,26.30
2007,07,10,14,57,26.20
2007,07,10,14,58,26.20
2007,07,10,14,59,26.30
2007,07,10,15,00,26.40
2007,07,10,15,01,26.40
2007,07,10,15,02,26.60
2007,07,10,15,03,26.60
2007,07,10,15,04,26.60
2007,07,10,15,05,26.60
2007,07,10,15,06,26.60
2007,07,10,15,07,26.50
2007,07,10,15,08,26.40
2007,07,10,15,09,26.40
2007,07,10,15,10,26.50
2007,07,10,15,11,26.60
2007,07,10,15,12,26.60
2007,07,10,15,13,26.60
2007,07,10,15,14,26.60
2007,07,10,15,15,26.60
2007,07,10,15,16,26.60
2007,07,10,15,17,26.70
2007,07,10,15,18,26.80
2007,07,10,15,19,26.90
2007,07,10,15,20,27.10
2007,07,10,15,21,27.10
2007,07,10,15,22,27.10
2007,07,10,15,23,27.10
2007,07,10,15,24,26.80
2007,07,10,15,25,26.70
2007,07,10,15,26,26.70
2007,07,10,15,27,26.80
2007,07,10,15,28,26.80
2007,07,10,15,29,27.00
2007,07,10,15,30,27.20
2007,07,10,15,31,27.20
2007,07,10,15,32,27.30
2007,07,10,15,33,27.30
2007,07,10,15,34,27.30
2007,07,10,15,35,27.20
2007,07,10,15,36,27.20
2007,07,10,15,37,27.20
2007,07,10,15,38,27.20
2007,07,10,15,39,27.20
2007,07,10,15,40,27.20
2007,07,10,15,41,27.30
2007,07,10,15,42,27.30
2007,07,10,15,43,27.30
2007,07,10,15,44,27.40
2007,07,10,15,45,27.40
2007,07,10,15,46,27.40
2007,07,10,15,47,27.40
2007,07,10,15,48,27.30
2007,07,10,15,49,27.30
2007,07,10,15,50,27.30
2007,07,10,15,51,27.20
2007,07,10,15,52,27.20
2007,07,10,15,53,27.30
2007,07,10,15,54,27.40
2007,07,10,15,55,27.40
2007,07,10,15,56,27.40
2007,07,10,15,57,27.50
2007,07,10,15,58,27.60
2007,07,10,15,59,27.60
2007,07,10,16,00,27.60
2007,07,10,16,01,27.60
2007,07,10,16,02,27.60
2007,07,10,16,03,27.60
2007,07,10,16,04,27.60
2007,07,10,16,05,27.60
2007,07,10,16,06,27.60
2007,07,10,16,07,27.70
2007,07,10,16,08,27.60
2007,07,10,16,09,27.60
2007,07,10,16,10,27.60
2007,07,10,16,11,27.70
2007,07,10,16,12,27.70
2007,07,10,16,13,27.70
2007,07,10,16,14,27.70
2007,07,10,16,15,27.70
2007,07,10,16,16,27.80
2007,07,10,16,17,27.80
2007,07,10,16,18,27.80
2007,07,10,16,19,27.80
2007,07,10,16,20,27.80
2007,07,10,16,21,27.80
2007,07,10,16,22,27.80
2007,07,10,16,23,27.80
2007,07,10,16,24,27.80
2007,07,10,16,25,27.80
2007,07,10,16,26,27.70
2007,07,10,16,27,27.60
2007,07,10,16,28,27.50
2007,07,10,16,29,27.40
2007,07,10,16,30,27.50
2007,07,10,16,31,27.60
2007,07,10,16,32,27.60
2007,07,10,16,33,27.70
2007,07,10,16,34,27.70
2007,07,10,16,35,27.90
2007,07,10,16,36,28.00
2007,07,10,16,37,28.10
2007,07,10,16,38,28.10
2007,07,10,16,39,28.00
2007,07,10,16,40,28.00
2007,07,10,16,41,27.80
2007,07,10,16,42,27.80
2007,07,10,16,43,27.80
2007,07,10,16,44,27.80
2007,07,10,16,45,27.90
2007,07,10,16,46,27.90
2007,07,10,16,47,28.00
2007,07,10,16,48,28.00
2007,07,10,16,49,27.90
2007,07,10,16,50,27.90
2007,07,10,16,51,27.80
2007,07,10,16,52,27.80
2007,07,10,16,53,27.80
2007,07,10,16,54,27.80
2007,07,10,16,55,27.80
2007,07,10,16,56,27.90
2007,07,10,16,57,28.10
2007,07,10,16,58,28.20
2007,07,10,16,59,28.20
2007,07,10,17,00,28.30
2007,07,10,17,01,28.30
2007,07,10,17,02,28.30
2007,07,10,17,03,28.30
2007,07,10,17,04,28.30
2007,07,10,17,05,28.30
2007,07,10,17,06,28.20
2007,07,10,17,07,28.20
2007,07,10,17,08,28.30
2007,07,10,17,09,28.40
2007,07,10,17,10,28.60
2007,07,10,17,11,28.70
2007,07,10,17,12,28.80
2007,07,10,17,13,28.80
2007,07,10,17,14,28.80
2007,07,10,17,15,28.80
2007,07,10,17,16,28.90
2007,07,10,17,17,28.80
2007,07,10,17,18,28.60
2007,07,10,17,19,28.60
2007,07,10,17,20,28.60
2007,07,10,17,21,28.60
2007,07,10,17,22,28.60
2007,07,10,17,23,28.70
2007,07,10,17,24,28.70
2007,07,10,17,25,28.80
2007,07,10,17,26,28.90
2007,07,10,17,27,28.90
2007,07,10,17,28,28.90
2007,07,10,17,29,28.90
2007,07,10,17,30,28.90
2007,07,10,17,31,28.90
2007,07,10,17,32,28.90
2007,07,10,17,33,28.90
2007,07,10,17,34,28.90
2007,07,10,17,35,28.80
2007,07,10,17,36,28.80